Barkley Observed Data For Previous 48 Hours

Caption
Day and Hour Reservoir Elevation (behind dam)* Tailwater Elevation (below dam)* Average Hourly Discharge*
4/22/2018 1 AM CDT 359.10 325.90 46,900
4/22/2018 2 AM CDT 359.08 325.95 47,033
4/22/2018 3 AM CDT 359.07 326.00 47,167
4/22/2018 4 AM CDT 359.05 326.05 47,300
4/22/2018 5 AM CDT 359.05 326.05 47,800
4/22/2018 6 AM CDT 359.00 326.00 47,800
4/22/2018 7 AM CDT 359.00 326.00 47,300
4/22/2018 8 AM CDT 359.00 326.00 47,300
4/22/2018 9 AM CDT 359.00 326.00 47,800
4/22/2018 10 AM CDT 359.00 326.00 47,300
4/22/2018 11 AM CDT 359.00 326.00 47,300
4/22/2018 12 PM CDT 359.00 326.00 47,300
4/22/2018 1 PM CDT 359.10 326.10 46,800
4/22/2018 2 PM CDT 359.10 326.10 47,300
4/22/2018 3 PM CDT 359.10 326.10 46,800
4/22/2018 4 PM CDT 359.10 326.10 46,800
4/22/2018 5 PM CDT 359.10 326.10 47,300
4/22/2018 6 PM CDT 359.10 326.18 47,300
4/22/2018 7 PM CDT 359.13 326.25 47,300
4/22/2018 8 PM CDT 359.15 326.33 47,300
4/22/2018 9 PM CDT 359.18 326.41 47,300
4/22/2018 10 PM CDT 359.20 326.49 47,300
4/22/2018 11 PM CDT 359.23 326.56 47,300
4/23/2018 12 AM CDT 359.25 326.64 47,300
4/23/2018 1 AM CDT 359.28 326.72 -999
4/23/2018 2 AM CDT 359.30 326.80 -999
4/23/2018 3 AM CDT 359.33 326.87 -999
4/23/2018 4 AM CDT 359.35 326.95 47,300
4/23/2018 5 AM CDT 359.45 327.05 47,900
4/23/2018 6 AM CDT 359.55 327.15 47,900
4/23/2018 7 AM CDT 359.55 327.25 47,400
4/23/2018 8 AM CDT 359.60 327.30 47,600
4/23/2018 9 AM CDT 359.70 326.90 36,700
4/23/2018 10 AM CDT 359.75 326.75 36,400
4/23/2018 11 AM CDT 359.80 326.60 36,600
4/23/2018 12 PM CDT 359.85 326.55 35,900
4/23/2018 1 PM CDT 359.88 326.56 36,800
4/23/2018 2 PM CDT 359.90 326.57 36,800
4/23/2018 3 PM CDT 359.93 326.58 36,800
4/23/2018 4 PM CDT 359.95 326.58 36,300
4/23/2018 5 PM CDT 359.95 326.59 36,800
4/23/2018 6 PM CDT 360.00 326.60 36,300
4/23/2018 7 PM CDT 360.05 326.75 36,400
4/23/2018 8 PM CDT 360.10 326.80 36,400
4/23/2018 9 PM CDT 360.20 326.80 36,300
4/23/2018 10 PM CDT 360.25 326.85 36,800
4/23/2018 11 PM CDT 360.30 326.80 36,600
4/24/2018 12 AM CDT 360.35 326.85 36,600
4/24/2018 1 AM CDT 360.40 326.90 36,100
4/24/2018 2 AM CDT 360.50 326.90 36,000
4/24/2018 3 AM CDT 360.55 326.95 36,500
4/24/2018 4 AM CDT 360.60 326.90 36,300
4/24/2018 5 AM CDT 360.65 326.95 36,800
4/24/2018 6 AM CDT 360.65 326.95 36,300
4/24/2018 7 AM CDT 360.75 - 999.00 35,700
4/24/2018 8 AM CDT 360.75 - 999.00 35,700
4/24/2018 9 AM CDT 360.75 - 999.00 36,200
4/24/2018 10 AM CDT 360.85 - 999.00 41,500
4/24/2018 11 AM CDT 360.80 327.40 48,300
4/24/2018 12 PM CDT 360.80 327.90 43,400

Elevations are in feet above sea level. Discharges are in cubic feet per second and are reported at the end of the hour.